TimePDT,TemperatureF,Dew PointF,Humidity,Sea Level PressureIn,VisibilityMPH,Wind Direction,Wind SpeedMPH,Gust SpeedMPH,PrecipitationIn,Events,Conditions,WindDirDegrees,DateUTC
12:53 AM,52.0,48.9,89,30.00,10.0,Calm,Calm,-,N/A,,Overcast,0,2006-10-17 07:53:00
1:53 AM,51.1,50.0,96,30.01,10.0,Calm,Calm,-,N/A,,Overcast,0,2006-10-17 08:53:00
2:53 AM,51.1,50.0,96,30.03,10.0,Calm,Calm,-,N/A,,Overcast,0,2006-10-17 09:53:00
3:26 AM,50.0,48.2,94,30.02,10.0,Calm,Calm,-,N/A,,Overcast,0,2006-10-17 10:26:00
3:53 AM,51.1,48.9,92,30.05,10.0,Calm,Calm,-,N/A,,Overcast,0,2006-10-17 10:53:00
4:00 AM,51.8,48.2,88,30.03,10.0,South,3.5,-,N/A,,Overcast,170,2006-10-17 11:00:00
4:53 AM,51.1,50.0,96,30.06,10.0,SSE,3.5,-,N/A,,Overcast,150,2006-10-17 11:53:00
5:04 AM,50.0,48.2,94,30.05,10.0,SE,4.6,-,N/A,,Overcast,140,2006-10-17 12:04:00
5:53 AM,51.1,48.9,92,30.09,8.0,Calm,Calm,-,N/A,,Overcast,0,2006-10-17 12:53:00
6:12 AM,51.8,48.2,88,30.07,8.0,Calm,Calm,-,N/A,,Overcast,0,2006-10-17 13:12:00
6:43 AM,50.0,48.2,94,30.08,7.0,Calm,Calm,-,N/A,,Overcast,0,2006-10-17 13:43:00
6:53 AM,50.0,48.9,96,30.11,7.0,Calm,Calm,-,N/A,,Mostly Cloudy,0,2006-10-17 13:53:00
7:22 AM,50.0,48.2,94,30.09,2.0,West,3.5,-,N/A,,Overcast,270,2006-10-17 14:22:00
7:27 AM,50.0,48.2,94,30.09,0.5,West,3.5,-,N/A,,Overcast,280,2006-10-17 14:27:00
7:53 AM,50.0,48.9,96,30.12,0.5,WNW,3.5,-,N/A,,Overcast,300,2006-10-17 14:53:00
8:43 AM,50.0,48.2,94,30.12,1.5,WNW,3.5,-,N/A,,Overcast,300,2006-10-17 15:43:00
8:53 AM,50.0,48.9,96,30.14,1.5,WNW,3.5,-,N/A,,Overcast,300,2006-10-17 15:53:00
9:00 AM,50.0,48.2,94,30.12,2.0,Calm,Calm,-,N/A,,Overcast,0,2006-10-17 16:00:00
9:47 AM,51.8,50.0,94,30.14,10.0,WSW,4.6,-,N/A,,Overcast,240,2006-10-17 16:47:00
9:53 AM,51.1,50.0,96,30.17,10.0,West,3.5,-,N/A,,Overcast,260,2006-10-17 16:53:00
10:15 AM,51.8,50.0,94,30.15,10.0,SW,4.6,-,N/A,,Overcast,220,2006-10-17 17:15:00
10:53 AM,51.1,48.9,92,30.19,8.0,West,4.6,-,N/A,,Overcast,280,2006-10-17 17:53:00
11:30 AM,51.8,50.0,94,30.17,10.0,WNW,4.6,-,N/A,,Mostly Cloudy,300,2006-10-17 18:30:00
11:53 AM,55.0,50.0,83,30.19,10.0,WNW,3.5,-,N/A,,Scattered Clouds,290,2006-10-17 18:53:00
12:53 PM,57.0,50.0,77,30.20,10.0,WSW,3.5,-,N/A,,Scattered Clouds,250,2006-10-17 19:53:00
1:53 PM,57.9,48.9,72,30.21,10.0,West,3.5,-,N/A,,Scattered Clouds,270,2006-10-17 20:53:00
2:53 PM,59.0,48.9,69,30.21,10.0,West,5.8,-,N/A,,Scattered Clouds,270,2006-10-17 21:53:00
3:53 PM,59.0,48.9,69,30.22,10.0,West,5.8,-,N/A,,Mostly Cloudy,260,2006-10-17 22:53:00
4:53 PM,57.0,48.0,72,30.22,10.0,SW,5.8,-,N/A,,Mostly Cloudy,230,2006-10-17 23:53:00
5:53 PM,55.9,48.9,77,30.23,10.0,WSW,5.8,-,N/A,,Mostly Cloudy,240,2006-10-18 00:53:00
6:53 PM,54.0,46.9,77,30.23,10.0,Calm,Calm,-,N/A,,Mostly Cloudy,0,2006-10-18 01:53:00
7:53 PM,52.0,46.9,83,30.24,10.0,South,5.8,-,N/A,,Scattered Clouds,170,2006-10-18 02:53:00
8:53 PM,51.1,46.0,83,30.24,10.0,SSE,3.5,-,N/A,,Scattered Clouds,150,2006-10-18 03:53:00
9:53 PM,52.0,45.0,77,30.25,10.0,SSE,4.6,-,N/A,,Mostly Cloudy,160,2006-10-18 04:53:00
10:49 PM,51.8,46.4,82,30.24,10.0,South,3.5,-,N/A,,Overcast,170,2006-10-18 05:49:00
10:53 PM,51.1,46.0,83,30.27,10.0,SSE,3.5,-,N/A,,Overcast,150,2006-10-18 05:53:00
11:35 PM,50.0,46.4,87,30.24,10.0,SSE,5.8,-,N/A,,Overcast,160,2006-10-18 06:35:00
11:53 PM,51.1,46.0,83,30.25,10.0,SSE,5.8,-,N/A,,Overcast,160,2006-10-18 06:53:00